Location: ????
(55.5675°N, 37.6272°E)
Time: 09:36:59
(UTC+00:00)

Cosmos 1818 - Pass Details

Date: 14 April 2026
Orbit: 774 x 797 km, 65.0° (Epoch: 18 May)

Event Time Altitude Azimuth Distance (km) Brightness Sun altitude
Rises 20:24:43 0° 309° (NW) 3,307 7.7 -23.4°
Reaches altitude 10° 20:27:12 10° 314° (NW) 2,377 6.9 -23.5°
Maximum altitude 20:32:34 54° 32° (NNE) 966 4.2 -23.7°
Enters shadow 20:35:12 29° 96° (E) 1,437 4.7 -23.8°
